Location: Soave
(45.1833°N, 10.7167°E)
Time: 11:30:57
(UTC+00:00)

Daily predictions for brighter satellites

Satellite Brightness Start Highest point End
(mag) Time Altitude Azimuth Time Altitude Azimuth Time Altitude Azimuth
Cosmos 1408 Rocket 3.5 15:59:26 10° N 16:03:49 82° E 16:08:13 10° S
Cosmos 1340 Rocket 2.9 16:00:17 10° N 16:04:19 57° ENE 16:08:19 10° SSE
CZ-2C R/B 4.2 16:02:15 10° NE 16:04:57 14° E 16:07:39 10° ESE
CZ-2C R/B 2.9 16:00:30 10° SSE 16:05:23 70° ENE 16:10:08 10° N
CZ-4B R/B 4.3 16:02:23 10° ESE 16:06:14 20° ENE 16:10:02 10° NNE
CZ-4C R/B 3.7 16:02:34 10° N 16:06:23 64° WNW 16:10:01 10° SSW
MOS 1 Rocket 4.5 16:02:27 10° N 16:07:14 46° WNW 16:11:44 10° SW
Cosmos 2360 4.5 16:03:28 10° NNW 16:09:01 48° ENE 16:14:32 10° SE
Cosmos 1500 4.4 16:08:45 10° NNE 16:11:35 20° ENE 16:14:23 10° ESE
Lacrosse 5 rocket 3.0 16:09:19 10° NNW 16:11:56 17° NNE 16:14:37 10° ENE
Cosmos 1743 Rocket 3.6 16:08:02 10° N 16:12:17 53° ENE 16:16:31 10° SSE
Meteor 1-20 Rocket 4.4 16:06:39 10° N 16:12:24 56° ENE 16:18:08 10° SSE
Okean O Rocket 3.2 16:12:08 10° E 16:14:36 15° ENE 16:17:04 10° NNE
USA 267 3.3 16:14:27 10° NE 16:21:02 88° NW 16:27:35 10° SW
H-2A R/B 2.7 16:18:43 10° SE 16:23:17 33° ENE 16:27:45 10° N
SJ 16-02 4.1 16:22:25 10° NW 16:25:52 23° W 16:29:18 10° SSW
Cosmos 1763 Rocket 3.4 16:21:52 10° SSW 16:26:56 86° ESE 16:32:04 10° NNE
CZ-4B R/B 3.1 16:23:33 10° S 16:27:36 75° WSW 16:31:30 10° NNW
USA 305 4.3 16:26:11 10° WNW 16:29:42 25° N 16:32:46 12° NE
USA 276 3.3 16:26:51 10° WNW 16:29:50 44° SSW 16:32:49 10° SE
Cosmos 1656 4.5 16:26:22 10° NNW 16:31:48 57° WSW 16:37:16 10° S
Cosmos 1933 3.3 16:28:55 10° S 16:32:54 62° E 16:36:54 10° NNE
Cosmos 841 Rocket 3.9 16:28:32 10° S 16:33:24 43° ESE 16:38:16 10° NNE
PSLV R/B 4.0 16:30:21 10° SE 16:33:48 40° ENE 16:37:20 10° N
USA 229 DEB 4.0 16:29:32 10° NW 16:36:56 88° SW 16:44:47 10° SE
USA 229 4.0 16:29:38 10° NW 16:37:02 88° SW 16:44:52 10° SE
Cosmos 1937 Rocket 3.5 16:32:52 10° NNW 16:38:12 67° ENE 16:43:28 10° SSE
Cosmos 1500 Rocket 3.9 16:36:23 10° NNW 16:40:49 71° W 16:45:10 10° S
Cosmos 1666 3.7 16:38:04 10° NNE 16:41:07 23° ENE 16:44:09 10° SE
SL-24 R/B - RUBIN 2 3.8 16:39:16 10° NNW 16:43:42 48° NE 16:47:53 10° ESE
Cosmos 2322 Rocket 3.7 16:41:39 10° N 16:44:56 15° NE 16:45:58 15° NE
Cosmos 1697 Rocket 2.8 16:41:53 10° NNW 16:47:32 84° WSW 16:53:09 10° SSE
NOAA 6 4.1 16:43:27 10° SSE 16:48:36 83° WSW 16:53:46 10° NNW
Cosmos 372 Rocket 4.1 16:44:15 10° NNW 16:49:24 54° ENE 16:54:32 10° SE
Sich 1 2.9 16:46:17 10° N 16:50:35 68° E 16:54:52 10° SSE
Cosmos 1980 Rocket 2.2 16:46:16 10° NNW 16:51:53 58° ENE 16:57:25 10° SE
Cosmos 1805 Rocket 3.5 16:48:13 10° N 16:52:35 89° W 16:56:55 10° S
Cosmos 2369 3.6 16:48:03 10° NNW 16:53:49 75° ENE 16:59:31 10° SSE
USA 234 3.3 16:47:46 10° SE 16:54:19 89° SSW 17:00:54 10° NW
CZ-4C R/B 3.1 16:51:24 10° NNW 16:58:23 56° NE 17:06:35 10° ESE
Cosmos 1092 Rocket 4.2 16:52:15 10° N 16:58:38 81° W 17:04:57 10° S
Cosmos 1812 3.0 16:56:14 10° SSE 16:59:55 45° E 17:02:42 16° NNE
Cosmos 1428 Rocket 4.5 16:55:12 10° N 17:01:22 88° WSW 17:07:31 10° S
USA 306 4.3 16:58:31 10° NW 17:02:04 25° N 17:03:35 20° NE
SL-16 R/B 3.2 16:58:32 10° N 17:03:06 24° NE 17:04:16 22° ENE
ISS -3.7 17:00:18 10° WNW 17:03:40 59° NNE 17:04:58 33° E
deb Chang Zheng 4 3.7 16:59:56 10° SE 17:04:04 47° ENE 17:08:13 10° N
SMAP 3.8 17:00:07 10° S 17:04:40 55° W 17:09:15 10° NNW
MOS 1-B Rocket 4.1 16:59:30 10° NNE 17:05:25 66° ESE 17:12:08 10° S
Cosmos 2082 Rocket 2.2 17:00:19 10° SSW 17:05:57 70° ESE 17:10:43 15° NNE
Cosmos 1939 Rocket 4.2 17:02:03 10° S 17:05:58 43° W 17:09:54 10° NNW
NOSS 2-2 (D) 4.3 17:00:43 10° NW 17:05:59 78° NE 17:13:22 10° SE
NOSS 2-2 (E) 4.5 17:00:54 10° NW 17:06:20 89° SW 17:14:02 10° SE
Cosmos 44 Rocket 3.9 17:08:39 10° NNW 17:13:11 35° NE 17:14:23 30° ENE
Meteor 2-16 Rocket 4.4 17:09:09 10° N 17:15:15 68° E 17:21:20 10° SSE
Cosmos 2278 3.6 17:12:12 10° NNW 17:17:54 66° ENE 17:23:33 10° SE
Cosmos 2142 Rocket 4.4 17:11:48 10° S 17:17:54 73° E 17:24:08 10° NNE
USA 307 4.2 17:17:19 10° NW 17:20:56 26° N 17:21:38 25° NNE
Cosmos 540 Rocket 4.0 17:15:58 10° SW 17:20:58 56° WNW 17:26:02 10° NNE
ARGOS 3.1 17:18:42 10° SSE 17:24:04 68° ENE 17:29:27 10° N
Cosmos 2279 Rocket 3.9 17:19:17 10° S 17:25:30 79° E 17:31:43 10° N
Cosmos 1570 Rocket 3.9 17:20:23 10° S 17:25:34 67° ESE 17:28:35 25° NNE
COSMO-SKYMED 1 2.4 17:23:24 19° NNE 17:26:28 74° ESE 17:30:48 10° S
COSMOS 2406 3.9 17:21:13 10° SW 17:26:50 53° WNW 17:32:09 11° NNE
Cosmos 2298 Rocket 4.4 17:22:46 10° N 17:27:48 40° ENE 17:28:50 36° E
Cosmos 1833 Rocket 3.8 17:22:59 10° SW 17:28:15 40° NW 17:33:33 10° NNE
Cosmos 1782 3.9 17:25:15 10° SSW 17:29:05 45° WNW 17:32:56 10° N
Cosmos 1814 Rocket 3.9 17:25:11 10° SSW 17:30:25 84° ESE 17:33:44 23° NNE
Cosmos 2266 Rocket 4.2 17:24:26 10° N 17:30:37 49° ENE 17:36:48 10° SSE
ATLAS 5 CENTAUR R/B 2.6 17:27:07 10° NW 17:33:08 37° NNE 17:33:08 37° NNE
Cosmos 921 Rocket 3.6 17:29:39 10° S 17:32:43 36° SE 17:32:43 36° SE
Helios 1B 4.4 17:32:06 22° NNE 17:34:51 88° E 17:39:11 10° SSW
CZ-2C R/B 3.7 17:33:34 10° S 17:35:04 12° SSE 17:35:26 12° SSE
Cosmos 1633 Rocket 3.0 17:31:22 10° N 17:35:46 88° W 17:40:09 10° S
YAOGAN 1 4.5 17:39:35 17° N 17:39:35 17° N 17:40:40 10° N
Cosmos 1818 3.6 17:31:56 10° NNW 17:37:20 56° NE 17:38:50 42° E
GEOS 3 Rocket 3.9 17:37:58 43° ENE 17:38:51 47° NE 17:43:49 10° NNW
Meteor 2-6 Rocket 4.1 17:34:41 10° S 17:40:27 78° E 17:45:14 15° NNE
SJ-11-01 4.3 17:37:19 10° SSE 17:42:04 83° WSW 17:46:51 10° NNW
USA 308 4.2 17:39:56 10° NW 17:43:13 27° N 17:43:13 27° N
COSMOS 2455 3.3 17:38:19 10° SW 17:44:15 58° NW 17:48:14 21° NNE
CZ-2C R/B 2.6 17:40:40 10° N 17:45:52 77° WNW 17:51:01 10° SSW
CZ-4B R/B 3.5 17:40:55 10° S 17:46:18 65° WSW 17:51:38 10° NNW
Cosmos 1151 Rocket 3.6 17:43:49 10° SSW 17:48:03 56° WNW 17:51:27 16° N
Spot 2 4.4 17:46:44 32° SE 17:48:59 61° ENE 17:54:03 10° N
Okean O Rocket 1.9 17:45:58 10° S 17:50:24 68° WSW 17:54:52 10° NNW
Lacrosse 5 rocket 2.3 17:47:56 10° NW 17:50:36 36° NNW 17:50:36 36° NNW
Meteor 2-15 4.3 17:51:43 10° S 17:57:50 86° E 18:03:28 13° N
Cosmos 2208 Rocket 4.1 17:54:13 10° SSW 17:59:36 80° WNW 18:01:39 40° NNE
Meteor 1-10 Rocket 4.1 17:56:31 10° S 18:02:20 85° E 18:04:52 35° NNE
H-2A R/B 3.7 17:57:58 10° SSW 18:02:39 34° W 18:07:15 10° NNW
USA 267 4.1 18:01:03 29° NNE 18:03:38 40° NNW 18:09:38 10° W
Meteor 1-11 Rocket 3.6 17:58:13 10° N 18:03:50 72° ENE 18:09:33 10° SSE
Cosmos 1470 Rocket 3.7 18:00:22 10° NNW 18:04:50 75° W 18:09:17 10° S
Cosmos 2150 Rocket 3.9 18:00:07 10° NNW 18:04:48 68° NNE 18:04:48 68° NNE
Cosmos 1328 Rocket 4.3 18:01:15 10° SSW 18:05:36 53° WNW 18:07:30 30° NNW
Cosmos 1655 Rocket 4.0 18:00:35 10° N 18:07:01 88° W 18:13:22 10° S
Landsat 5 4.0 18:08:42 52° WNW 18:08:55 53° WNW 18:12:48 10° SSW
Cosmos 2360 Rocket 3.8 18:04:53 10° N 18:07:10 21° N 18:07:10 21° N
ATLAS CENTAUR R/B 3.7 18:14:17 10° W 18:20:15 28° NW 18:20:43 27° NNW
Cosmos 1125 Rocket 3.9 18:18:08 10° NNW 18:22:14 55° NNW 18:22:14 55° NNW
Cosmos 2322 Rocket 3.1 18:24:20 10° NNW 18:27:49 38° NNW 18:27:49 38° NNW
Cosmos 1980 Rocket 4.4 18:31:07 10° NW 18:35:25 23° W 18:39:42 10° SSW
ATLAS 2AS CENTAUR R/B 4.4 18:32:53 10° NNW 18:37:27 21° N 18:37:27 21° N
ISS -0.4 18:37:29 10° W 18:37:59 13° W 18:37:59 13° W
CZ-4C R/B 4.0 18:40:02 10° NW 18:47:05 45° WSW 18:55:02 10° S
SL-16 R/B 3.0 18:42:03 10° NNW 18:46:11 47° NW 18:46:11 47° NW
Cosmos 2082 Rocket 4.2 18:46:10 10° W 18:50:36 23° NW 18:52:35 19° NNW
